User: anonymous   Login
Location: Bothwell
(42.3833°S, 147.0000°E)
Time: 06:04:22
(UTC+10:00)
Language:

XW-2A - Orbit

View from above orbital plane
View from above orbital plane
View from above satellite
View from above satellite

Ground track
Ground track

The orbit data is extracted from the following two-line orbital elements,

1 40903U 15049E   22267.42020252  .00025174  00000-0  34299-3 0  9990
2 40903  97.1687 326.2969 0010410 111.7095  14.7306 15.57457690394649
Epoch (UTC): 24 September 2022 10:05:05
Eccentricity: 0.0010410
inclination: 97.1687°
perigee height: 388 km
apogee height: 402 km
right ascension of ascending node: 326.2969°
argument of perigee: 111.7095°
revolutions per day: 15.57457690
mean anomaly at epoch: 14.7306°
orbit number at epoch: 39464

The dashed part of the orbit path shows where the satellite is in the earth's shadow,  

DLR